Regional Weather Roundup
Issued by NWS

Home | Current Version | Previous Version | Text Only | Print | Product List | Glossary Off
Versions: 1 2 3 4 5 6 7 8 9 10 11 12 13 14 15 16 17 18 19 20 21 22 23 24 25 26 27 28 29 30 31 32 33 34 35 36 37 38 39 40 41 42 43 44 45 46 47 48 49 50

000
ASUS43 KMKX 030700
RWRWI

WISCONSIN REGIONAL WEATHER ROUNDUP
NATIONAL WEATHER SERVICE MILWAUKEE/SULLIVAN WI
200 AM CDT WED SEP 03 2014

NOTE: "FAIR" INDICATES FEW OR NO CLOUDS BELOW 12,000 FEET WITH NO
SIGNIFICANT WEATHER AND/OR OBSTRUCTIONS TO VISIBILITY.

WIZ001-002-006>008-014>016-023>028-030800-
NORTHWEST WISCONSIN

CITY           SKY/WX    TMP DP  RH WIND       PRES   REMARKS
SUPERIOR ARPT  MOCLDY    58  55  90 N10       29.83R
ASHLAND        MOCLDY    54  52  93 SW6       29.84S
HAYWARD        PTCLDY    52  51  97 CALM      29.88R
SIREN          CLEAR     64  55  71 SW8       29.86S
RICE LAKE      CLEAR     56  52  87 CALM      29.91S
LADYSMITH      CLEAR     56  54  92 CALM      29.92S
EAU CLAIRE     NOT AVBL
MENOMONIE      SUNNY     60  56  86 CALM      29.91R
NEW RICHMOND   CLEAR     60  55  85 S6        29.90S
OSCEOLA        CLEAR     58  58  98 S5        29.91S
$$

WIZ003>005-009-010-017-018-030800-
NORTH CENTRAL WISCONSIN

CITY           SKY/WX    TMP DP  RH WIND       PRES   REMARKS
WOODRUFF       CLEAR     52  49  90 CALM      29.91F
RHINELANDER    CLEAR     50  48  93 CALM      29.94R
EAGLE RIVER    CLEAR     50  50 100 CALM      29.92R
LAND O LAKES   CLEAR     46  46 100 CALM      29.92S
PHILLIPS       CLEAR     54  53  95 S5        29.91R
TOMAHAWK         N/A     47  47  97 CALM      29.94R FOG
MEDFORD        CLEAR     55  53  91 S5        29.94R
MERRILL        FOG       49  49 100 CALM      29.94R VSB 1/2
$$

WIZ029-030-035-036-043>047-030800-
CENTRAL WISCONSIN

CITY           SKY/WX    TMP DP  RH WIND       PRES   REMARKS
WAUSAU         CLEAR     57  55  93 SE3       29.93R
MOSINEE        CLEAR     54  54 100 CALM      29.96R
MARSHFIELD     CLEAR     55  53  93 SW5       29.95R
STEVENS POINT  CLEAR     54  54  97 CALM      29.96R
WAUPACA        CLEAR     58  57  95 CALM      29.95R
WAUTOMA        NOT AVBL
WISC RAPIDS    CLEAR     56  55  97 CALM      29.96S
CAMP DOUGLAS   NOT AVBL
$$

WIZ011>013-019>022-031-037>040-048>050-030800-
NORTHEAST WISCONSIN

CITY           SKY/WX    TMP DP  RH WIND       PRES   REMARKS
ANTIGO         CLEAR     51  51  98 CALM      29.95R
STURGEON BAY   CLEAR     61  55  82 SW7       29.93R
GREEN BAY      CLEAR     57  55  93 CALM      29.94R
MANITOWOC      NOT AVBL
APPLETON       CLEAR     61  55  82 SW8       29.95S
CLINTONVILLE   CLEAR     55  54  94 CALM      29.94R
OSHKOSH        CLEAR     62  57  83 SW6       29.95R
$$

WIZ032>034-041-042-053>061-030800-
SOUTHWEST WISCONSIN

CITY           SKY/WX    TMP DP  RH WIND       PRES   REMARKS
LA CROSSE      CLEAR     64  61  90 S5        29.94R
SPARTA         CLEAR     54  52  95 CALM      29.96R
VIROQUA        FAIR      61  61 100 S5        29.97S
BOSCOBEL       PTCLDY    58  55  90 CALM      29.97F FOG
PRAIRIE DU CHI PTCLDY    59  57  92 CALM      29.97R
PLATTEVILLE    FAIR      61  58  91 CALM      30.00S
$$

WIZ056-057-062-063-064-067-068-030800-
SOUTH CENTRAL WISCONSIN

CITY           SKY/WX    TMP DP  RH WIND       PRES   REMARKS
BARABOO/DELLS  CLEAR     62  56  80 SW6       29.97R
LONE ROCK      NOT AVBL
WATERTOWN      CLEAR     56  56  97 CALM      29.98R
MADISON        CLEAR     61  57  87 CALM      29.97S
MIDDLETON      FAIR      60  58  93 CALM      29.98S
MONROE         CLEAR     61  57  88 SW7       29.99S
JANESVILLE     CLEAR     59  57  94 CALM      29.98S
$$

WIZ051-052-058>065-066-070>072-030800-
SOUTHEAST WISCONSIN

CITY           SKY/WX    TMP DP  RH WIND       PRES   REMARKS
MILWAUKEE      CLEAR     66  58  75 W5        29.97S
WAUKESHA       CLEAR     59  55  88 SW3       29.99R
MILWAUKEE/TIMM CLEAR     61  55  82 CALM      29.98S
RACINE         CLEAR     65  58  78 W5        29.99R
BURLINGTON     CLEAR     55  55 100 SW3       29.98S
KENOSHA        CLEAR     60  58  92 CALM      29.98S
FOND DU LAC    CLEAR     59  56  89 S3        29.96R
SHEBOYGAN      CLEAR     58  55  90 CALM      29.96R
WEST BEND      CLEAR     57  54  88 CALM      29.97S
JUNEAU         CLEAR     59  56  89 CALM      29.98R
$$

LSZ147-162-030800-
LAKE SUPERIOR

STATION/POSITION TIME  TEMP    WIND        PRES    WAVE
                       AIR SEA DIR/SP/G            HT/PER
                 (UTC) (F)     (DEG/KT/KT) (MB)    (FT/S)
W MID LAKE BUOY  0550   60 58  190/ 12/ 14 1009.0F   2/ 5
DEVILS ISLAND    0600   62     210/ 11/ 16 1009.1F
PORT WING        0600   63     200/  7/ 11 1009.8R
SAXON HARBOR     0600   58     190/  3/  6 1010.5
$$

LMZ867-665-643>646-030800-
LAKE MICHIGAN

STATION/POSITION TIME  TEMP    WIND        PRES    WAVE
                       AIR SEA DIR/SP/G            HT/PER
                 (UTC) (F)     (DEG/KT/KT) (MB)    (FT/S)
N MID LAKE BUOY  0550   66 65  230/ 10/ 10 1011.7R   1/ 3
NORTHPORT PIER   0600   64     240/  4/  6 1012.2R
SISTER BAY       0511   68     240/  6/  7   N/A
ALGOMA LAKESHORE 0623             CALM       N/A
KEWAUNEE LAKESHO 0600   63     280/  5/  6 1012.4R
SHEBOYGAN LAKESH 0600   65 52  250/  8/  9 1014.1R
ATWATER BUOY     0600   67     230/  8/  8 1015.7R
MILWAUKEE LAKESH 0600   69     250/  7/  8   N/A
S MID LAKE BUOY  0550   71 71  210/  6/  8 1014.6R   0
KENOSHA   LAKESH 0600   68     250/  7/  7 1014.9R
$$

TC  - TEMPERATURE IN CELSIUS
VSB - VISIBILITY IN STATUTE MILES
WCI - WIND CHILL INDEX
HX  - HEAT INDEX



USA.gov is the U.S. government's official web portal to all federal, state and local government web resources and services.